星链-11101 [DTC] (STARLINK-11101 [DTC] )

导读 | 豆包AI

STARLINK-11101是美国太空探索技术公司(SpaceX)星链星座的卫星,于2024年5月10日发射。星链项目旨在构建全球卫星互联网星座,为全球范围提供高速互联网接入服务。该卫星入轨后,将进一步扩充星链星座规模,提升星座的服务覆盖能力与网络稳定性,助力星链全球互联网服务的推进。

基本信息
目录编号:
59715
目录名称:
STARLINK-11101
国际标识:
2024-088H
轨道中心:
EARTH
卫星名称:
星链-11101 [DTC]
卫星全名:
星链-11101 [DTC] (STARLINK-11101 [DTC] )
卫星状态:
在轨 (已飞行721 天)
发射日期:
2024-05-10 UTC
国别 :
美国 (US)
星等 :
--
轨道信息
数据来源 国际轨道数据
星历时间: 2026-05-01T14:45:40+0800
10小时前
查看轨道信息
半长轴: 6737.845km
偏心率: 0.0000804
轨道倾角: 53.158°
近地点辐角 86.806°
升交点赤经 66.916°
平近点角 273.305°
近地点: 359.166km
远地点: 360.25km
周期: 91.736分钟
每日圈数: 15.697166
详细信息
固有亮度:
5
最大亮度:
0.6
卫星平台:
Starlink v2.0 mini
覆盖范围:
全球
运营商:
太空探索技术公司
运营商所在国:
美国
制造商(研发单位):
太空探索技术公司
制造商所在国:
美国
使用方式:
暂无
卫星简介
星链(Starlink)计划是由太空探索技术公司(SpaceX)提出的一个巨型低轨卫星互联网星座项目,计划在2019年至2024年间在太空搭建由约1.2万颗卫星组成的“星链”网络,其中1584颗将部署在地球上空550千米处的近地轨道,并从2020年开始工作。该卫星仍在工作。
2D轨道图
3D轨道图
轨道高度分析图
轨道倾角分析图
轨道综合分析图
查看轨道综合分析图